This is the latest recevied weather packets stored in our database for station/object ON7LDS-13. If no packets are shown the sender has not sent any weather packets the latest 10 day(s).
| Time | Temp. | Humidity | Pressure | Rain* | Wind** | Luminosity | Snow |
|---|---|---|---|---|---|---|---|
| 1777913169 | 18.33° C | 11% | 1016.5 hPa | - | - | - | - |
| 1777906539 | 19.44° C | 9% | 1016.9 hPa | - | - | - | - |
| 1777905339 | 19.44° C | 12% | 1017 hPa | - | - | - | - |
| 1777901138 | 20° C | 11% | 1017.5 hPa | - | - | - | - |
| 1777899368 | 19.44° C | 3% | 1017.7 hPa | - | - | - | - |
| 1777897538 | 19.44° C | 1% | 1017.8 hPa | - | - | - | - |
| 1777895737 | 18.89° C | 1% | 1017.9 hPa | - | - | - | - |
| 1777895137 | 18.33° C | 1% | 1017.9 hPa | - | - | - | - |
| 1777890396 | 17.22° C | 1% | 1018.4 hPa | - | - | - | - |
| 1777878335 | 15° C | 1% | 1017.7 hPa | - | - | - | - |
| 1777871134 | 13.33° C | 1% | 1016.7 hPa | - | - | - | - |
| 1777868794 | 12.78° C | 1% | 1016.7 hPa | - | - | - | - |
| 1777865165 | 12.78° C | 1% | 1016.7 hPa | - | - | - | - |
| 1777862794 | 12.78° C | 1% | 1016.7 hPa | - | - | - | - |
| 1777859132 | 12.78° C | 1% | 1016.4 hPa | - | - | - | - |
| 1777856732 | 13.33° C | 1% | 1016.4 hPa | - | - | - | - |
| 1777854362 | 13.33° C | 1% | 1016.2 hPa | - | - | - | - |
| 1777851331 | 13.89° C | 1% | 1016.3 hPa | - | - | - | - |
| 1777849591 | 13.33° C | 1% | 1016.5 hPa | - | - | - | - |
| 1777840530 | 13.33° C | 1% | 1016.5 hPa | - | - | - | - |
| 1777835191 | 14.44° C | 1% | 1016.1 hPa | - | - | - | - |
| 1777827930 | 16.11° C | 1% | 1015.9 hPa | - | - | - | - |
| 1777826748 | 16.67° C | 1% | 1015.8 hPa | - | - | - | - |
| 1777825528 | 17.22° C | 1% | 1015.5 hPa | - | - | - | - |
| 1777824328 | 17.22° C | 1% | 1015.6 hPa | - | - | - | - |
* Rain since midnight (hover to see other rain measurements)
** Current wind speed in m/s (hover to see current wind gust speed)